Terug naar catalogus

FENGYUN 1C DEB

ActiefSSO
NORAD 31350·DEBRIS·🇨🇳 China

Gelanceerd May 10, 1999 vanaf Taiyuan Satellite Launch Center

Loading…

Volgende Passages (komende 24 uur)

TLE

VerouderendSource: Space-Track

Epoch: Sep 4, 2026, 18:08 UTC

1 31350U 99025BRE 26247.75559176  .00000545  00000-0  20071-3 0  9990
2 31350  98.9728  75.1227 0066873  66.2096 294.6081 14.35529950740699

Volg FENGYUN 1C DEB in realtime met AllMySat

Download on the App Store